Location: Columbus
(29.5618°N, 96.6770°W)
Time: 00:22:24
(UTC-05:00)

Iridium 59 - Visible Passes

Search period start: 26 March 2017 00:00
Search period end: 05 April 2017 00:00
Orbit: 776 x 779 km, 86.4° (Epoch: 24 March)

Date Brightness Start Highest point End Pass type
(mag) Time Alt. Az. Time Alt. Az. Time Alt. Az.
26 Mar 7.4 22:41:31 10° NNW 22:42:37 16° NNW 22:42:37 16° NNW visible
27 Mar 6.9 22:07:54 10° N 22:09:38 21° N 22:09:38 21° N visible
28 Mar 6.6 21:34:44 10° NNE 21:36:42 21° NNE 21:36:42 21° NNE visible
28 Mar 7.9 23:16:28 10° NW 23:17:12 12° NW 23:17:12 12° NW visible
29 Mar 6.8 21:02:15 10° NE 21:03:48 15° NE 21:03:48 15° NE visible
29 Mar 7.0 22:41:53 10° NNW 22:44:18 24° NW 22:44:18 24° NW visible
30 Mar 6.0 22:07:59 10° N 22:11:26 42° NNW 22:11:26 42° NNW visible
31 Mar 5.4 21:34:32 10° N 21:38:38 47° NE 21:38:38 47° NE visible
31 Mar 7.9 23:18:11 10° WNW 23:19:08 11° WNW 23:19:08 11° WNW visible
01 Apr 5.9 21:01:36 10° NNE 21:05:51 28° E 21:05:51 28° E visible
01 Apr 7.1 22:42:29 10° NNW 22:46:22 23° W 22:46:22 23° W visible
02 Apr 6.6 20:29:37 10° NE 20:32:19 14° E 20:33:08 14° E visible
02 Apr 5.9 22:08:14 10° NNW 22:13:11 46° W 22:13:40 45° WSW visible
03 Apr 4.9 21:34:30 10° N 21:39:45 86° E 21:41:01 53° S visible
04 Apr 5.3 21:01:15 10° NNE 21:06:12 42° E 21:08:26 28° SE visible
04 Apr 7.6 22:43:30 10° NW 22:46:27 15° W 22:48:58 11° WSW visible
